JAL999 RJBB-RJOO

Flight info

Callsign JAL999
Flight time 0h 11m
Altitude 11000
Route TOMOH KAINA IZUMI
Aircraft A359/H-SDE2E3GHIJ3J4J5LM1ORWXY/LB1D1

Departure

Time 2026-05-06 15:07
Airport Kansai International Airport (RJBB)

Arrival

Time 2026-05-06 15:19
Airport Osaka Itami International Airport (RJOO)
Time Latitude Longitude Altitude Speed Heading
2026-05-06 15:00 34.43932 135.23021 35 ft 0 kts 142°
2026-05-06 15:03 34.43943 135.23011 35 ft 3 kts 144°
2026-05-06 15:04 34.43961 135.23002 34 ft 3 kts 185°
2026-05-06 15:04 34.43974 135.23005 34 ft 0 kts 214°
2026-05-06 15:04 34.43973 135.23003 34 ft 2 kts 217°
2026-05-06 15:05 34.43929 135.22912 35 ft 25 kts 236°
2026-05-06 15:05 34.43886 135.22699 35 ft 26 kts 257°
2026-05-06 15:05 34.43830 135.22507 35 ft 24 kts 268°
2026-05-06 15:05 34.43759 135.22319 35 ft 31 kts 232°
2026-05-06 15:06 34.43608 135.22090 35 ft 36 kts 231°
2026-05-06 15:06 34.43449 135.21848 35 ft 38 kts 231°
2026-05-06 15:06 34.43257 135.21568 35 ft 52 kts 230°
2026-05-06 15:06 34.43051 135.21242 35 ft 44 kts 251°
2026-05-06 15:07 34.43159 135.21054 36 ft 24 kts
2026-05-06 15:07 34.43293 135.21235 38 ft 64 kts 50°
2026-05-06 15:07 34.43794 135.22024 60 ft 167 kts 55°
2026-05-06 15:07 34.44540 135.23246 1002 ft 190 kts 54°
2026-05-06 15:08 34.45362 135.24588 2134 ft 208 kts 54°
2026-05-06 15:08 34.45949 135.26312 2914 ft 238 kts 87°
2026-05-06 15:08 34.45748 135.28349 3926 ft 251 kts 108°
2026-05-06 15:08 34.45260 135.30390 5031 ft 260 kts 106°
2026-05-06 15:09 34.44925 135.32588 6120 ft 270 kts 98°
2026-05-06 15:09 34.44740 135.34874 7060 ft 281 kts 97°
2026-05-06 15:09 34.44402 135.37298 7607 ft 303 kts 103°
2026-05-06 15:09 34.44002 135.39951 7609 ft 334 kts 97°
2026-05-06 15:10 34.44153 135.42662 7440 ft 311 kts 74°
2026-05-06 15:10 34.45017 135.44906 7204 ft 282 kts 59°
2026-05-06 15:10 34.46033 135.46955 6960 ft 286 kts 59°
2026-05-06 15:10 34.47047 135.49027 6728 ft 286 kts 60°
2026-05-06 15:11 34.48025 135.51078 6523 ft 279 kts 60°
2026-05-06 15:11 34.48984 135.53122 6326 ft 282 kts 60°
2026-05-06 15:11 34.49949 135.55200 5974 ft 282 kts 61°
2026-05-06 15:11 34.50942 135.57348 5612 ft 281 kts 61°
2026-05-06 15:12 34.51859 135.59338 5294 ft 280 kts 62°
2026-05-06 15:12 34.52796 135.61373 4983 ft 279 kts 62°
2026-05-06 15:12 34.53744 135.63353 4784 ft 258 kts 57°
2026-05-06 15:12 34.54947 135.64782 4681 ft 231 kts 30°
2026-05-06 15:13 34.56380 135.65359 4587 ft 208 kts
2026-05-06 15:13 34.57779 135.65434 4523 ft 204 kts 359°
2026-05-06 15:13 34.59195 135.65372 4445 ft 202 kts 351°
2026-05-06 15:13 34.60526 135.64884 4343 ft 199 kts 329°
2026-05-06 15:14 34.61640 135.63898 4295 ft 198 kts 315°
2026-05-06 15:14 34.62632 135.62749 4087 ft 197 kts 314°
2026-05-06 15:14 34.63617 135.61596 3808 ft 196 kts 313°
2026-05-06 15:14 34.64586 135.60432 3523 ft 196 kts 313°
2026-05-06 15:15 34.65554 135.59264 3245 ft 196 kts 313°
2026-05-06 15:15 34.66508 135.58117 2973 ft 195 kts 314°
2026-05-06 15:15 34.67452 135.56981 2742 ft 185 kts 313°
2026-05-06 15:15 34.68331 135.55921 2484 ft 172 kts 314°
2026-05-06 15:16 34.69153 135.54930 2261 ft 161 kts 314°
2026-05-06 15:16 34.69900 135.54028 2050 ft 153 kts 314°
2026-05-06 15:16 34.70630 135.53148 1844 ft 143 kts 314°
2026-05-06 15:16 34.71315 135.52321 1671 ft 136 kts 315°
2026-05-06 15:17 34.71981 135.51515 1487 ft 135 kts 315°
2026-05-06 15:17 34.72648 135.50710 1305 ft 135 kts 315°
2026-05-06 15:17 34.73306 135.49902 1119 ft 134 kts 311°
2026-05-06 15:17 34.73929 135.49078 944 ft 134 kts 311°
2026-05-06 15:18 34.74567 135.48255 787 ft 134 kts 313°
2026-05-06 15:18 34.75220 135.47453 634 ft 134 kts 312°
2026-05-06 15:18 34.75911 135.46689 419 ft 134 kts 314°
2026-05-06 15:18 34.76585 135.45910 253 ft 133 kts 311°
2026-05-06 15:19 34.77247 135.45129 96 ft 133 kts 315°
2026-05-06 15:19 34.77879 135.44383 46 ft 100 kts 314°
2026-05-06 15:19 34.78180 135.44051 47 ft 24 kts 336°
2026-05-06 15:19 34.78208 135.44037 47 ft 6 kts 338°
2026-05-06 15:20 34.78369 135.43995 47 ft 33 kts
2026-05-06 15:20 34.78551 135.44111 47 ft 27 kts 45°
2026-05-06 15:20 34.78684 135.44194 52 ft 15 kts 339°
2026-05-06 15:20 34.78754 135.44116 49 ft 15 kts 314°
2026-05-06 15:21 34.78834 135.44017 50 ft 18 kts 314°
2026-05-06 15:21 34.78927 135.43982 49 ft 13 kts 14°
2026-05-06 15:21 34.78993 135.44012 55 ft 8 kts 23°
2026-05-06 15:21 34.79007 135.44020 56 ft 0 kts 22°
2026-05-06 15:22 34.79026 135.44031 57 ft 0 kts 26°